Weather History for Chehalis, WA

Change the Weather History Date:

Friday, October 14, 2011

  Actual Average (KOLM) Record (KOLM)
Temperature  
Mean Temperature 54 °F 51 °F  
Max Temperature 59 °F 61 °F 82 °F (1961)
Min Temperature 48 °F 41 °F 22 °F (1969)
Degree Days  
Heating Degree Days 12 14  
Month to date heating degree days 173  
Since 1 July heating degree days 513  
Cooling Degree Days 0 0  
Month to date cooling degree days 0  
Year to date cooling degree days 106  
Growing Degree Days 4 (Base 50)    
Moisture  
Dew Point 48 °F    
Average Humidity 85    
Maximum Humidity 94    
Minimum Humidity 67    
Precipitation  
Precipitation 0.01 in 0.14 in 0.99 in (1956)
Month to date precipitation 1.51  
Year to date precipitation 30.82  
Sea Level Pressure  
Sea Level Pressure 30.00 in    
Wind  
Wind Speed 5 mph (North)    
Max Wind Speed 9 mph    
Max Gust Speed -    
Visibility 10 miles    
Events Rain    
T = Trace of Precipitation, MM = Missing Value Source: NWS Daily Summary

Daily Weather History Graph

Daily Weather History Graph

Search for Another Location

Airport:

Trip Planner

Search our weather history database for the weather conditions in past years. The results will help you decide how hot, cold, wet, or windy it might be!

Date:

Astronomy

Oct. 14, 2011 Rise Set
Actual Time 7:27 AM PDT 6:27 PM PDT
Civil Twilight 6:57 AM PDT 6:57 PM PDT
Nautical Twilight 6:22 AM PDT 7:32 PM PDT
Astronomical Twilight 5:47 AM PDT 8:07 PM PDT
Moon 7:30 PM PDT (10/14) 10:14 AM PDT (10/14)
Length of Visible Light 12h 00m
Length of Day
10h 59m
Waning Gibbous, 94% of the Moon is Illuminated
Oct 14
Waning Gibbous
Oct 19
Last Quarter
Oct 26
New
Nov 2
First Quarter
Nov 10
Full

Hourly Weather History & Observations

Time (PDT) Temp. Dew Point Humidity Pressure Visibility Wind Dir Wind Speed Gust Speed Precip Events Conditions
12:15 AM 50.0 °F 46.4 °F 87% 30.03 in 10.0 mi North 6.9 mph - N/A   Mostly Cloudy
12:35 AM 50.0 °F 46.4 °F 87% 30.04 in 9.0 mi North 6.9 mph - N/A   Overcast
12:55 AM 50.0 °F 46.4 °F 87% 30.02 in 10.0 mi NNE 8.1 mph - N/A   Overcast
1:15 AM 50.0 °F 46.4 °F 87% 30.03 in 10.0 mi North 3.5 mph - N/A   Overcast
1:35 AM 50.0 °F 46.4 °F 87% 30.02 in 10.0 mi North 3.5 mph - N/A   Overcast
1:55 AM 50.0 °F 46.4 °F 87% 30.03 in 10.0 mi North 4.6 mph - N/A   Overcast
2:15 AM 50.0 °F 46.4 °F 87% 30.03 in 10.0 mi North 4.6 mph - N/A   Overcast
2:35 AM 48.2 °F 46.4 °F 93% 30.02 in 5.0 mi North 6.9 mph - N/A Rain Light Rain
2:55 AM 48.2 °F 46.4 °F 93% 30.02 in 10.0 mi North 6.9 mph - N/A   Overcast
3:15 AM 50.0 °F 46.4 °F 87% 30.01 in 10.0 mi North 8.1 mph - N/A   Overcast
3:35 AM 48.2 °F 46.4 °F 93% 30.02 in 10.0 mi North 3.5 mph - N/A   Overcast
3:55 AM 48.2 °F 46.4 °F 93% 30.01 in 10.0 mi North 3.5 mph - N/A   Overcast
4:15 AM 48.2 °F 46.4 °F 93% 30.01 in 10.0 mi Calm Calm - N/A Rain Light Rain
4:35 AM 48.2 °F 46.4 °F 93% 30.01 in 10.0 mi North 3.5 mph - N/A   Overcast
4:55 AM 48.2 °F 46.4 °F 93% 30.00 in 10.0 mi Calm Calm - N/A Rain Light Rain
5:15 AM 48.2 °F 46.4 °F 93% 29.99 in 8.0 mi Calm Calm - N/A Rain Light Rain
5:35 AM 48.2 °F 46.4 °F 93% 30.00 in 10.0 mi North 4.6 mph - 0.01 in Rain Light Rain
6:15 AM 48.2 °F 46.4 °F 93% 30.00 in 10.0 mi Calm Calm - N/A   Overcast
6:35 AM 48.2 °F 46.4 °F 93% 30.00 in 10.0 mi NNW 3.5 mph - N/A   Overcast
6:55 AM 48.2 °F 46.4 °F 93% 30.00 in 10.0 mi North 3.5 mph - N/A   Overcast
7:15 AM 48.2 °F 46.4 °F 93% 30.00 in 10.0 mi North 3.5 mph - N/A   Overcast
7:35 AM 48.2 °F 46.4 °F 93% 30.00 in 10.0 mi Calm Calm - N/A   Overcast
7:55 AM 48.2 °F 46.4 °F 93% 30.01 in 8.0 mi Calm Calm - N/A   Overcast
8:15 AM 48.2 °F 46.4 °F 93% 30.01 in 9.0 mi North 4.6 mph - N/A   Overcast
8:35 AM 50.0 °F 48.2 °F 94% 30.01 in 8.0 mi North 3.5 mph - N/A   Overcast
8:55 AM 50.0 °F 48.2 °F 94% 30.01 in 10.0 mi NNE 9.2 mph - N/A   Overcast
9:15 AM 50.0 °F 48.2 °F 94% 30.01 in 10.0 mi NNE 5.8 mph - N/A   Overcast
9:35 AM 50.0 °F 48.2 °F 94% 30.02 in 10.0 mi NNW 4.6 mph - N/A   Overcast
9:55 AM 51.8 °F 48.2 °F 88% 30.02 in 10.0 mi North 3.5 mph - N/A   Overcast
10:15 AM 51.8 °F 48.2 °F 88% 30.02 in 10.0 mi North 3.5 mph - N/A   Overcast
10:35 AM 51.8 °F 48.2 °F 88% 30.02 in 10.0 mi North 4.6 mph - N/A   Overcast
10:55 AM 53.6 °F 48.2 °F 82% 30.02 in 10.0 mi North 5.8 mph - N/A   Overcast
11:15 AM 53.6 °F 48.2 °F 82% 30.02 in 10.0 mi North 3.5 mph - N/A   Overcast
11:35 AM 53.6 °F 48.2 °F 82% 30.01 in 10.0 mi North 4.6 mph - N/A   Overcast
11:55 AM 53.6 °F 48.2 °F 82% 30.01 in 10.0 mi North 3.5 mph - N/A   Overcast
12:15 PM 55.4 °F 48.2 °F 77% 30.01 in 10.0 mi North 4.6 mph - N/A   Overcast
12:35 PM 55.4 °F 48.2 °F 77% 30.00 in 10.0 mi North 5.8 mph - N/A   Overcast
12:55 PM 55.4 °F 50.0 °F 82% 30.00 in 10.0 mi North 5.8 mph - N/A   Overcast
1:15 PM 55.4 °F 50.0 °F 82% 30.01 in 10.0 mi NNW 9.2 mph - N/A   Overcast
1:55 PM 55.4 °F 48.2 °F 77% 29.99 in 10.0 mi NNW 5.8 mph - N/A   Overcast
2:15 PM 55.4 °F 50.0 °F 82% 29.99 in 10.0 mi NE 9.2 mph - N/A   Mostly Cloudy
2:35 PM 57.2 °F 48.2 °F 72% 29.99 in 10.0 mi NNE 6.9 mph - N/A   Scattered Clouds
2:55 PM 57.2 °F 48.2 °F 72% 29.99 in 10.0 mi NNE 5.8 mph - N/A   Clear
3:15 PM 57.2 °F 48.2 °F 72% 29.98 in 10.0 mi NE 8.1 mph - N/A   Clear
3:35 PM 57.2 °F 50.0 °F 77% 29.99 in 10.0 mi North 6.9 mph - N/A   Clear
3:55 PM 59.0 °F 48.2 °F 67% 29.99 in 10.0 mi NNE 9.2 mph - N/A   Clear
4:15 PM 59.0 °F 50.0 °F 72% 29.99 in 10.0 mi North 5.8 mph - N/A   Clear
4:35 PM 59.0 °F 48.2 °F 67% 29.99 in 10.0 mi North 5.8 mph - N/A   Clear
4:55 PM 57.2 °F 48.2 °F 72% 29.98 in 10.0 mi North 3.5 mph - N/A   Clear
5:15 PM 57.2 °F 48.2 °F 72% 29.98 in 10.0 mi North 4.6 mph - N/A   Clear
5:35 PM 57.2 °F 50.0 °F 77% 29.97 in 10.0 mi North 3.5 mph - N/A   Mostly Cloudy
5:55 PM 57.2 °F 50.0 °F 77% 29.97 in 10.0 mi NNW 3.5 mph - N/A   Overcast
6:15 PM 55.4 °F 50.0 °F 82% 29.97 in 10.0 mi NNW 4.6 mph - N/A   Mostly Cloudy
6:35 PM 55.4 °F 50.0 °F 82% 29.97 in 10.0 mi North 3.5 mph - N/A   Overcast
6:55 PM 55.4 °F 48.2 °F 77% 29.96 in 10.0 mi Calm Calm - N/A   Overcast
7:15 PM 55.4 °F 48.2 °F 77% 29.98 in 10.0 mi Calm Calm - N/A   Mostly Cloudy
7:35 PM 53.6 °F 48.2 °F 82% 29.98 in 10.0 mi Calm Calm - N/A   Mostly Cloudy
7:55 PM 53.6 °F 48.2 °F 82% 29.98 in 10.0 mi Calm Calm - N/A   Overcast
8:15 PM 53.6 °F 48.2 °F 82% 29.98 in 10.0 mi Calm Calm - N/A   Mostly Cloudy
8:35 PM 53.6 °F 48.2 °F 82% 29.99 in 10.0 mi Calm Calm - N/A   Partly Cloudy
8:55 PM 51.8 °F 48.2 °F 88% 29.99 in 10.0 mi North 3.5 mph - N/A   Partly Cloudy
9:15 PM 51.8 °F 48.2 °F 88% 29.99 in 10.0 mi Calm Calm - N/A   Partly Cloudy
9:35 PM 50.0 °F 48.2 °F 94% 29.99 in 10.0 mi Calm Calm - N/A   Scattered Clouds
9:55 PM 50.0 °F 48.2 °F 94% 30.00 in 10.0 mi NNW 4.6 mph - N/A   Scattered Clouds
10:15 PM 50.0 °F 48.2 °F 94% 29.99 in 10.0 mi Calm Calm - N/A   Partly Cloudy
10:35 PM 50.0 °F 46.4 °F 87% 30.01 in 10.0 mi NNW 5.8 mph - N/A   Partly Cloudy
10:55 PM 50.0 °F 46.4 °F 87% 30.01 in 10.0 mi NNW 6.9 mph - N/A   Clear
11:15 PM 50.0 °F 46.4 °F 87% 30.01 in 10.0 mi NNW 6.9 mph - N/A   Clear
11:35 PM 50.0 °F 46.4 °F 87% 30.02 in 10.0 mi NNW 4.6 mph - N/A   Clear
11:55 PM 48.2 °F 46.4 °F 93% 30.02 in 9.0 mi NNE 3.5 mph - N/A   Clear